Location: Allison Elementary School
(34.0784°N, 117.7317°W)
Time: 05:36:07
(UTC+00:00)

Daily predictions for brighter satellites

Satellite Brightness Start Highest point End
(mag) Time Altitude Azimuth Time Altitude Azimuth Time Altitude Azimuth
Cosmos 1656 3.9 01:04:40 10° S 01:10:01 49° ESE 01:15:20 10° NNE
Cosmos 1743 Rocket 3.6 01:11:07 10° N 01:15:29 88° E 01:19:52 10° S
Cosmos 1805 Rocket 4.3 01:11:52 10° NNE 01:15:44 30° E 01:19:35 10° SE
AQUARIUS 4.2 01:12:08 10° SSE 01:16:32 59° ENE 01:20:58 10° N
Okean O Rocket 3.9 01:17:06 10° SSW 01:20:58 30° W 01:24:50 10° NW
H-2A R/B 2.7 01:19:11 10° SSE 01:23:00 65° ENE 01:26:49 10° N
Envisat 3.5 01:21:51 10° SE 01:26:30 38° ENE 01:31:09 10° N
ERBS 2.4 01:25:37 10° SW 01:28:55 74° NW 01:32:14 10° NE
Cosmos 2219 3.3 01:23:26 10° NNW 01:28:57 55° ENE 01:34:26 10° SE
CZ-3 Stage 3 3.3 01:24:31 10° W 01:32:44 37° SSW 01:35:34 10° SE
IUS-18 SRM-1 4.2 01:27:45 10° W 01:37:19 41° SSW 01:40:20 10° SE
OE (NEXTSAT) 4.3 01:35:16 10° NW 01:38:44 87° SW 01:42:12 10° SE
SeaSat 1 2.7 01:34:58 10° SE 01:39:40 47° ENE 01:44:23 10° NNW
Cosmos 1980 Rocket 3.2 01:35:46 10° SSE 01:40:17 25° ESE 01:44:00 13° NE
CORIOLIS 4.3 01:37:15 10° SSE 01:42:38 83° WSW 01:48:04 10° NNW
Cosmos 1633 Rocket 3.9 01:41:54 10° NNE 01:45:40 27° ENE 01:49:27 10° SE
CZ-3C R/B 3.3 01:42:48 10° SW 01:46:06 15° SSW 01:48:29 10° SSE
FengYun 1-2 T 4.4 01:42:13 10° SE 01:47:30 47° ENE 01:52:43 10° N
Cosmos 1862 4.1 01:44:56 10° NNE 01:48:25 29° E 01:51:54 10° SE
Cosmos 2227 Rocket 2.4 01:43:59 10° N 01:49:28 49° ENE 01:54:55 10° SE
Cosmos 2297 Rocket 2.3 01:44:11 10° N 01:49:42 54° ENE 01:55:13 10° SE
SMAP 4.1 01:47:07 10° S 01:51:36 49° W 01:56:07 10° NNW
Cosmos 2084 3.3 01:49:28 10° NNW 01:53:43 70° ENE 01:57:52 10° SE
COSMO-SKYMED 1 2.5 01:49:31 10° NNE 01:53:53 80° ESE 01:58:12 10° S
Cosmos 2112 Rocket 4.3 01:49:56 10° S 01:54:49 44° ESE 01:59:22 12° NNE
Cosmos 1328 Rocket 4.0 01:51:24 10° SSE 01:55:33 40° E 01:59:40 10° NNE
Cosmos 1666 Rocket 3.8 01:52:25 10° N 01:56:37 45° E 02:00:45 10° SSE
NOSS 2-3 (E) 3.5 01:53:46 10° SSW 01:57:59 78° ESE 02:01:41 16° NE
Sich 1 2.9 01:55:06 10° N 01:59:27 72° E 02:03:49 10° SSE
Cosmos 2369 3.6 01:53:59 10° SSW 01:59:37 83° ESE 02:05:19 10° NNE
Cosmos 1151 Rocket 3.4 01:56:22 10° SSE 02:00:25 41° E 02:04:03 13° NNE
Cosmos 1680 Rocket 3.4 01:57:08 10° S 02:02:15 64° ESE 02:07:25 10° NNE
NOSS 3-1 (A) 3.6 02:00:03 10° SW 02:05:21 62° WNW 02:11:22 10° NNE
NOSS 2-3 (D) 3.5 02:03:10 10° SSW 02:07:24 90° SSW 02:10:39 19° NNE
Cosmos 1464 Rocket 3.8 02:04:11 10° N 02:10:20 75° E 02:16:26 10° S
Cosmos 1891 Rocket 4.4 02:04:22 10° N 02:10:44 76° E 02:16:54 10° S
Cosmos 2360 4.2 02:06:04 10° S 02:11:39 61° ESE 02:15:56 18° NNE
Cosmos 158 Rocket 4.3 02:09:18 10° S 02:14:19 43° ESE 02:16:19 30° NE
YAOGAN 1 2.5 02:11:43 10° SSE 02:15:56 57° ENE 02:20:11 10° N
Cosmos 2082 3.8 02:11:23 10° N 02:16:51 51° ENE 02:22:07 11° SE
Cosmos 1072 Rocket 4.5 02:13:02 10° N 02:19:10 84° W 02:25:22 10° S
CZ-4 R/B 4.4 02:15:17 10° SSE 02:19:24 87° WSW 02:23:33 10° NNW
Lacrosse 4 Rocket 2.5 02:15:35 10° SW 02:19:28 41° WNW 02:22:47 13° N
Cosmos 2278 3.6 02:13:57 10° SSW 02:19:36 89° ESE 02:24:41 13° NNE
Cosmos 1697 Rocket 2.9 02:14:28 10° SSW 02:20:06 70° WNW 02:25:46 10° NNE
Cosmos 1633 2.8 02:19:50 10° NNW 02:23:27 68° W 02:27:02 10° S
SL-8 R/B 4.4 02:24:32 10° SSW 02:28:57 37° SE 02:28:58 37° SE
ATLAS 5 CENTAUR R/B 2.5 02:24:29 10° NNW 02:30:39 90° SW 02:37:34 10° SSE
H-II Stage 2 4.5 01:16:29 10° WSW 02:30:47 57° S 02:35:09 30° ESE
CZ-4 R/B 1.8 02:27:59 10° S 02:32:08 65° WSW 02:36:15 10° NNW
Cosmos 1607 4.1 02:27:23 10° NNW 02:33:36 74° WSW 02:39:52 10° SSE
GPS 2-04 Rocket1 3.5 02:31:00 10° SW 02:33:26 33° SSW 02:33:26 33° SSW
YAOGAN 6 3.9 02:34:16 10° S 02:37:35 39° W 02:40:53 10° NNW
BREEZE-M DEB (TANK) 3.9 02:43:08 10° W 02:47:20 25° NNW 02:47:39 25° NNW
NOAA 11 4.0 02:46:05 10° SSE 02:51:30 85° ENE 02:56:56 10° NNW
ATLAS 5 CENTAUR R/B 3.8 02:55:27 10° SW 03:00:42 33° SSE 03:04:25 28° SE
SL-16 R/B 4.3 03:10:58 10° S 03:11:43 14° S 03:11:43 14° S
Cosmos 1980 Rocket 3.5 03:18:51 10° SW 03:24:01 37° WNW 03:25:50 29° NNW
USA 215 4.5 03:37:14 29° NNW 03:37:14 29° NNW 03:40:34 10° NNW
Cosmos 1697 Rocket 4.5 11:17:56 27° ENE 11:17:56 27° ENE 11:22:04 10° ESE
CZ-2C R/B 4.4 11:26:45 10° NE 11:36:53 - SSE 11:29:24 23° ENE
Cosmos 2082 Rocket 3.8 11:39:42 26° NNE 11:39:42 26° NNE 11:42:05 10° NNE
